TimeEDT,TemperatureF,Dew PointF,Humidity,Sea Level PressureIn,VisibilityMPH,Wind Direction,Wind SpeedMPH,Gust SpeedMPH,PrecipitationIn,Events,Conditions,WindDirDegrees,DateUTC
12:52 AM,64.0,55.0,73,30.26,10.0,SW,6.9,-,N/A,,Partly Cloudy,230,2013-06-22 04:52:00
1:52 AM,64.0,55.0,73,30.26,10.0,SW,6.9,-,N/A,,Clear,220,2013-06-22 05:52:00
2:52 AM,64.0,54.0,70,30.27,10.0,SW,4.6,-,N/A,,Clear,230,2013-06-22 06:52:00
3:52 AM,64.0,55.0,73,30.26,10.0,WSW,5.8,-,N/A,,Clear,240,2013-06-22 07:52:00
4:52 AM,64.0,57.0,78,30.25,10.0,SW,6.9,-,N/A,,Clear,230,2013-06-22 08:52:00
5:52 AM,64.0,57.9,80,30.27,10.0,SW,5.8,-,N/A,,Clear,230,2013-06-22 09:52:00
6:52 AM,66.0,59.0,78,30.27,10.0,Variable,5.8,-,N/A,,Clear,0,2013-06-22 10:52:00
7:52 AM,68.0,60.1,76,30.26,10.0,SW,6.9,-,N/A,,Clear,230,2013-06-22 11:52:00
8:52 AM,70.0,60.1,71,30.26,10.0,SW,9.2,16.1,N/A,,Clear,230,2013-06-22 12:52:00
9:52 AM,71.1,61.0,70,30.25,10.0,SW,12.7,18.4,N/A,,Clear,220,2013-06-22 13:52:00
10:52 AM,72.0,62.1,71,30.27,10.0,Variable,6.9,17.3,N/A,,Clear,0,2013-06-22 14:52:00
11:52 AM,73.9,62.1,66,30.27,10.0,Variable,5.8,16.1,N/A,,Clear,0,2013-06-22 15:52:00
12:52 PM,75.0,55.9,51,30.27,10.0,SW,10.4,19.6,N/A,,Clear,230,2013-06-22 16:52:00
1:52 PM,75.0,57.0,53,30.26,10.0,SW,9.2,18.4,N/A,,Clear,220,2013-06-22 17:52:00
2:52 PM,73.0,62.1,68,30.25,10.0,SW,6.9,-,N/A,,Clear,220,2013-06-22 18:52:00
3:52 PM,71.1,61.0,70,30.23,10.0,SW,6.9,16.1,N/A,,Clear,220,2013-06-22 19:52:00
4:52 PM,69.1,61.0,75,30.22,10.0,SSW,11.5,19.6,N/A,,Clear,210,2013-06-22 20:52:00
5:52 PM,69.1,61.0,75,30.21,10.0,SW,8.1,19.6,N/A,,Clear,220,2013-06-22 21:52:00
6:52 PM,66.0,61.0,84,30.20,10.0,SW,8.1,16.1,N/A,,Clear,220,2013-06-22 22:52:00
7:52 PM,64.9,61.0,87,30.19,10.0,SW,8.1,18.4,N/A,,Clear,220,2013-06-22 23:52:00
8:52 PM,64.9,62.1,90,30.20,10.0,SW,8.1,-,N/A,,Clear,220,2013-06-23 00:52:00
9:52 PM,64.9,62.1,90,30.21,10.0,SW,6.9,-,N/A,,Clear,220,2013-06-23 01:52:00
10:52 PM,64.9,62.1,90,30.21,10.0,SW,8.1,-,N/A,,Clear,230,2013-06-23 02:52:00
11:52 PM,66.0,62.1,87,30.21,10.0,SW,8.1,-,N/A,,Clear,220,2013-06-23 03:52:00